GW5938 Weather Reports


time (UTC)temp
C
wind
direction
speed
KPH
gust
KPH
rain 1hr
cm
rain 24hr
cm
rain mn
cm
humidity
%
barometer
mb
20260504215012 22 254 8.0 19.3 0.00 0.00 0.00 25 1007.5
20260504214527 23 279 12.9 19.3 0.00 0.00 0.00 25 1007.5
20260504214007 23 245 11.3 17.7 0.00 0.00 0.00 24 1007.5
20260504213516 22 249 4.8 16.1 0.00 0.00 0.00 25 1007.6
20260504213042 22 307 3.2 19.3 0.00 0.00 0.00 24 1007.7
20260504212515 22 255 8.0 19.3 0.00 0.00 0.00 28 1007.8
20260504212014 22 325 8.0 16.1 0.00 0.00 0.00 27 1007.8
20260504211534 22 285 6.4 20.9 0.00 0.00 0.00 24 1008.0
20260504211010 23 238 9.7 20.9 0.00 0.00 0.00 27 1008.0
20260504210506 22 275 8.0 20.9 0.00 0.00 0.00 28 1008.0
20260504205506 23 228 11.3 17.7 0.00 0.00 0.00 26 1008.1
20260504205009 23 265 9.7 17.7 0.00 0.00 0.00 26 1008.2
20260504204534 22 215 3.2 14.5 0.00 0.00 0.00 26 1008.3
20260504204014 21 106 0.0 14.5 0.00 0.00 0.00 24 1008.4
20260504203511 21 227 6.4 14.5 0.00 0.00 0.00 25 1008.5
20260504203028 21 247 3.2 12.9 0.00 0.00 0.00 26 1008.5
20260504202510 22 348 3.2 11.3 0.00 0.00 0.00 28 1008.5
20260504202010 22 307 6.4 12.9 0.00 0.00 0.00 28 1008.6
20260504201527 22 299 4.8 12.9 0.00 0.00 0.00 23 1008.7
20260504200514 21 197 3.2 14.5 0.00 0.00 0.00 33 1008.8
20260504200028 22 161 4.8 16.1 0.00 0.00 0.00 29 1008.8
20260504195511 22 249 9.7 16.1 0.00 0.00 0.00 31 1009.0
20260504195012 21 305 1.6 9.7 0.00 0.00 0.00 28 1009.0
20260504194524 22 219 4.8 16.1 0.00 0.00 0.00 32 1009.0
20260504194007 22 213 8.0 16.1 0.00 0.00 0.00 32 1009.0
20260504193507 21 270 4.8 12.9 0.00 0.00 0.00 29 1009.1
20260504193028 21 88 3.2 16.1 0.00 0.00 0.00 29 1009.2
20260504192510 21 157 8.0 16.1 0.00 0.00 0.00 29 1009.3
20260504192013 21 175 4.8 14.5 0.00 0.00 0.00 26 1009.3
20260504191529 21 159 8.0 14.5 0.00 0.00 0.00 27 1009.4
20260504191009 21 211 3.2 9.7 0.00 0.00 0.00 31 1009.4
20260504190510 21 307 4.8 12.9 0.00 0.00 0.00 33 1009.5
20260504190030 21 226 4.8 19.3 0.00 0.00 0.00 30 1009.6
20260504185511 21 251 6.4 19.3 0.00 0.00 0.00 32 1009.6
20260504185011 20 219 4.8 16.1 0.00 0.00 0.00 32 1009.6
20260504184530 20 243 4.8 16.1 0.00 0.00 0.00 29 1009.7
20260504184008 20 253 8.0 16.1 0.00 0.00 0.00 33 1009.8
20260504183512 20 146 3.2 12.9 0.00 0.00 0.00 31 1009.8
20260504183026 20 264 4.8 12.9 0.00 0.00 0.00 32 1009.9
20260504182508 20 243 6.4 11.3 0.00 0.00 0.00 35 1009.9
20260504182016 20 234 1.6 16.1 0.00 0.00 0.00 31 1010.0
20260504181526 20 308 3.2 16.1 0.00 0.00 0.00 34 1010.1
20260504181013 20 246 9.7 14.5 0.00 0.00 0.00 33 1010.2
20260504180512 19 22 3.2 14.5 0.00 0.00 0.00 31 1010.3
20260504180030 20 271 3.2 16.1 0.00 0.00 0.00 30 1010.2
20260504175509 20 173 9.7 16.1 0.00 0.00 0.00 31 1010.3
20260504175011 20 206 6.4 12.9 0.00 0.00 0.00 31 1010.3
20260504174530 19 241 4.8 12.9 0.00 0.00 0.00 32 1010.3
20260504174010 19 178 3.2 12.9 0.00 0.00 0.00 31 1010.3
20260504173508 18 313 6.4 14.5 0.00 0.00 0.00 30 1010.3
20260504173024 19 239 6.4 14.5 0.00 0.00 0.00 33 1010.3
20260504172509 18 249 1.6 12.9 0.00 0.00 0.00 35 1010.3
20260504172012 18 279 8.0 12.9 0.00 0.00 0.00 35 1010.5
20260504171510 18 245 6.4 11.3 0.00 0.00 0.00 38 1010.4
20260504171004 18 273 3.2 12.9 0.00 0.00 0.00 40 1010.4
20260504170505 17 260 6.4 12.9 0.00 0.00 0.00 41 1010.5
20260504151013 12 233 1.6 3.2 0.00 0.00 0.00 47 1010.7
20260504150510 12 223 1.6 3.2 0.00 0.00 0.00 47 1010.6
20260504141009 9 176 0.0 0.0 0.00 0.00 0.00 54 1010.7
20260504140508 8 176 0.0 0.0 0.00 0.00 0.00 57 1010.7
20260504130509 4 145 1.6 3.2 0.00 0.00 0.00 71 1010.5
20260504110507 4 342 1.6 3.2 0.00 0.00 0.00 69 1010.3
20260504100512 5 150 0.0 0.0 0.00 0.00 0.00 64 1010.1
20260504081527 7 9 0.0 4.8 0.00 0.00 0.00 56 1010.3
20260504081007 8 9 0.0 6.4 0.00 0.00 0.00 55 1010.3
20260504050504 11 21 1.6 4.8 0.00 0.00 0.00 47 1011.0
20260504050005 12 197 0.0 0.0 0.00 0.00 0.00 44 1010.9
20260504045504 11 197 0.0 0.0 0.00 0.00 0.00 43 1010.9
20260504045004 12 182 0.0 3.2 0.00 0.00 0.00 42 1010.9
20260504044515 12 169 0.0 3.2 0.00 0.00 0.00 40 1010.9
20260504044006 12 319 1.6 6.4 0.00 0.00 0.00 40 1010.9
20260504043506 12 319 3.2 6.4 0.00 0.00 0.00 41 1011.0
20260504043023 12 317 0.0 3.2 0.00 0.00 0.00 40 1011.0
20260504042507 12 134 0.0 3.2 0.00 0.00 0.00 38 1010.9
20260504042008 12 134 0.0 3.2 0.00 0.00 0.00 38 1010.9
20260504041519 12 140 1.6 3.2 0.00 0.00 0.00 38 1010.9
20260504041007 12 140 1.6 3.2 0.00 0.00 0.00 37 1010.9
20260504040503 13 136 0.0 3.2 0.00 0.00 0.00 38 1010.8
20260504040003 13 136 0.0 3.2 0.00 0.00 0.00 37 1010.8
20260504035505 13 135 1.6 3.2 0.00 0.00 0.00 37 1010.8
20260504035004 13 131 0.0 1.6 0.00 0.00 0.00 37 1010.9
20260504034506 13 130 1.6 1.6 0.00 0.00 0.00 36 1010.9
20260504034004 13 127 1.6 3.2 0.00 0.00 0.00 36 1010.8
20260504033504 13 127 1.6 3.2 0.00 0.00 0.00 36 1010.8
20260504033014 13 127 1.6 3.2 0.00 0.00 0.00 36 1010.8
20260504032506 14 139 1.6 3.2 0.00 0.00 0.00 35 1010.8
20260504032010 14 134 1.6 3.2 0.00 0.00 0.00 35 1010.8
20260504031522 15 144 0.0 3.2 0.00 0.00 0.00 34 1010.7
20260504031007 15 133 0.0 4.8 0.00 0.00 0.00 34 1010.7
20260504030507 15 137 1.6 4.8 0.00 0.00 0.00 33 1010.6
20260504030023 16 118 3.2 4.8 0.00 0.00 0.00 31 1010.6
20260504025507 16 130 1.6 3.2 0.00 0.00 0.00 30 1010.6
20260504025004 16 165 0.0 3.2 0.00 0.00 0.00 30 1010.5
20260504024507 16 165 0.0 3.2 0.00 0.00 0.00 29 1010.5
20260504024003 17 165 0.0 3.2 0.00 0.00 0.00 28 1010.6
20260504023506 17 165 0.0 3.2 0.00 0.00 0.00 27 1010.5
20260504023023 18 165 0.0 1.6 0.00 0.00 0.00 26 1010.5
20260504022508 18 165 0.0 1.6 0.00 0.00 0.00 25 1010.5
20260504022005 18 166 0.0 4.8 0.00 0.00 0.00 24 1010.4
20260504021518 19 175 0.0 4.8 0.00 0.00 0.00 23 1010.4
20260504021005 19 175 1.6 4.8 0.00 0.00 0.00 22 1010.5
20260504020508 20 182 1.6 6.4 0.00 0.00 0.00 22 1010.5
20260504020023 20 178 3.2 6.4 0.00 0.00 0.00 23 1010.5
20260504015507 20 172 3.2 8.0 0.00 0.00 0.00 23 1010.6
20260504015008 20 155 1.6 8.0 0.00 0.00 0.00 22 1010.5
20260504014523 21 170 3.2 8.0 0.00 0.00 0.00 21 1010.6
20260504014008 21 142 3.2 11.3 0.00 0.00 0.00 21 1010.6
20260504013508 21 154 6.4 11.3 0.00 0.00 0.00 21 1010.6
20260504013030 21 127 4.8 12.9 0.00 0.00 0.00 21 1010.7
20260504012511 21 157 4.8 14.5 0.00 0.00 0.00 21 1010.7
20260504012007 21 144 8.0 14.5 0.00 0.00 0.00 21 1010.8
20260504011523 21 175 6.4 14.5 0.00 0.00 0.00 20 1010.8
20260504011009 22 186 6.4 14.5 0.00 0.00 0.00 19 1010.8
20260504010512 22 142 8.0 12.9 0.00 0.00 0.00 20 1010.9
20260504010022 22 217 3.2 4.8 0.00 0.00 0.00 21 1011.0
20260504005506 22 218 1.6 4.8 0.00 0.00 0.00 20 1011.0
20260504005008 22 158 1.6 3.2 0.00 0.00 0.00 19 1011.0
20260504004008 22 349 0.0 8.0 0.00 0.00 0.00 18 1011.1
20260504003513 22 323 3.2 11.3 0.00 0.00 0.00 19 1011.2
20260504003026 22 279 4.8 11.3 0.00 0.00 0.00 20 1011.2
20260504002505 22 319 0.0 8.0 0.00 0.00 0.00 22 1011.2
20260504002010 22 315 3.2 8.0 0.00 0.00 0.00 19 1011.3
20260504001526 22 312 3.2 8.0 0.00 0.00 0.00 19 1011.3
20260504001011 22 339 0.0 17.7 0.00 0.00 0.00 21 1011.4
20260504000511 22 344 6.4 17.7 0.00 0.00 0.00 20 1011.5
20260504000020 22 26 4.8 14.5 0.00 0.00 0.00 20 1011.5
20260503235006 22 348 9.7 14.5 0.00 0.00 0.00 19 1011.6
20260503234527 22 317 1.6 14.5 0.00 0.00 0.00 19 1011.6
20260503234007 22 32 4.8 16.1 0.00 0.00 0.00 19 1011.7
20260503233508 23 15 6.4 17.7 0.00 0.00 0.00 21 1011.7
20260503233025 22 67 4.8 17.7 0.00 0.00 0.00 20 1011.7
20260503232509 22 22 6.4 17.7 0.00 0.00 0.00 19 1011.8
20260503232002 22 70 1.6 16.1 0.00 0.00 0.00 20 1011.9
20260503231516 22 93 3.2 16.1 0.00 0.00 0.00 17 1012.0
20260503231006 22 32 4.8 14.5 0.00 0.00 0.00 21 1012.0
20260503230507 22 348 8.0 16.1 0.00 0.00 0.00 20 1012.1
20260503230018 22 343 9.7 14.5 0.00 0.00 0.00 19 1012.2
20260503225511 22 352 8.0 12.9 0.00 0.00 0.00 20 1012.2
20260503225008 22 22 1.6 14.5 0.00 0.00 0.00 20 1012.3
20260503224523 22 15 8.0 14.5 0.00 0.00 0.00 20 1012.3
20260503224016 22 336 9.7 14.5 0.00 0.00 0.00 21 1012.4
20260503223511 23 271 3.2 11.3 0.00 0.00 0.00 20 1012.5
20260503223028 23 215 3.2 16.1 0.00 0.00 0.00 24 1012.5
20260503222506 23 162 9.7 16.1 0.00 0.00 0.00 20 1012.7
20260503222011 22 330 1.6 12.9 0.00 0.00 0.00 19 1012.7
20260503221528 23 238 6.4 12.9 0.00 0.00 0.00 25 1012.8
20260503221010 22 90 1.6 8.0 0.00 0.00 0.00 18 1012.9
20260503220509 22 105 3.2 12.9 0.00 0.00 0.00 19 1012.9
20260503220014 22 284 3.2 12.9 0.00 0.00 0.00 19 1013.1
20260503215503 22 344 1.6 11.3 0.00 0.00 0.00 18 1013.2